User: anonymous   Login
Location: Mascot Post Office (historical)
(40.2645°N, 99.5462°W)
Time: 05:17:01
(UTC+00:00)
Language:

Thor Agena Rocket - Orbit

View from above orbital plane
View from above orbital plane
View from above satellite
View from above satellite

Ground track
Ground track

The orbit data is extracted from the following two-line orbital elements,

1   733U 64002A   20273.34167335 +.00000014 +00000-0 +22896-4 0  9997
2   733 098.9966 168.8551 0032860 289.9814 069.7831 14.32406134953690
Epoch (UTC): 29 September 2020 08:12:00
Eccentricity: 0.0032860
inclination: 98.9966°
perigee height: 760 km
apogee height: 807 km
right ascension of ascending node: 168.8551°
argument of perigee: 289.9814°
revolutions per day: 14.32406134
mean anomaly at epoch: 69.7831°
orbit number at epoch: 95369

The dashed part of the orbit path shows where the satellite is in the earth's shadow,  

DLR